| time (UTC) | temp C | wind direction | speed KPH | gust KPH | rain 1hr cm | rain 24hr cm | rain mn cm | humidity % | barometer mb |
| 20260903015024 | 31 | 238 | 4.8 | 9.7 | 0.00 | 0.00 | 0.00 | 43 | 1015.2 |
| 20260903014523 | 31 | 237 | 4.8 | 11.3 | 0.00 | 0.00 | 0.00 | 43 | 1015.2 |
| 20260903014020 | 31 | 251 | 4.8 | 11.3 | 0.00 | 0.00 | 0.00 | 42 | 1015.3 |
| 20260903013516 | 31 | 250 | 3.2 | 16.1 | 0.00 | 0.00 | 0.00 | 41 | 1015.0 |
| 20260903013011 | 31 | 229 | 3.2 | 16.1 | 0.00 | 0.00 | 0.00 | 41 | 1015.0 |
| 20260903012527 | 31 | 242 | 6.4 | 12.9 | 0.00 | 0.00 | 0.00 | 40 | 1015.0 |
| 20260903012023 | 31 | 248 | 3.2 | 11.3 | 0.00 | 0.00 | 0.00 | 41 | 1014.9 |
| 20260903011520 | 31 | 249 | 4.8 | 11.3 | 0.00 | 0.00 | 0.00 | 42 | 1014.9 |
| 20260903011019 | 31 | 240 | 4.8 | 9.7 | 0.00 | 0.00 | 0.00 | 42 | 1014.9 |
| 20260903010515 | 31 | 250 | 6.4 | 9.7 | 0.00 | 0.00 | 0.00 | 43 | 1014.8 |
| 20260903010043 | 31 | 234 | 6.4 | 9.7 | 0.00 | 0.00 | 0.00 | 44 | 1014.8 |
| 20260903005524 | 31 | 217 | 6.4 | 9.7 | 0.00 | 0.00 | 0.00 | 43 | 1014.8 |
| 20260903005019 | 31 | 217 | 4.8 | 8.0 | 0.00 | 0.00 | 0.00 | 44 | 1014.8 |
| 20260903004514 | 31 | 207 | 4.8 | 12.9 | 0.00 | 0.00 | 0.00 | 44 | 1014.9 |
| 20260903004031 | 32 | 210 | 4.8 | 12.9 | 0.00 | 0.00 | 0.00 | 44 | 1014.9 |
| 20260903003531 | 32 | 208 | 4.8 | 11.3 | 0.00 | 0.00 | 0.00 | 44 | 1014.9 |
| 20260903003027 | 32 | 234 | 4.8 | 12.9 | 0.00 | 0.00 | 0.00 | 44 | 1014.9 |
| 20260903002522 | 32 | 235 | 3.2 | 6.4 | 0.00 | 0.00 | 0.00 | 44 | 1015.0 |
| 20260903002018 | 32 | 235 | 3.2 | 9.7 | 0.00 | 0.00 | 0.00 | 43 | 1015.0 |
| 20260903001514 | 32 | 237 | 4.8 | 11.3 | 0.00 | 0.00 | 0.00 | 44 | 1015.0 |
| 20260903001029 | 31 | 235 | 4.8 | 11.3 | 0.00 | 0.00 | 0.00 | 44 | 1015.1 |
| 20260903000525 | 31 | 237 | 6.4 | 11.3 | 0.00 | 0.00 | 0.00 | 45 | 1015.1 |
| 20260903000037 | 31 | 148 | 6.4 | 16.1 | 0.00 | 0.00 | 0.00 | 44 | 1015.1 |
| 20260902235518 | 31 | 135 | 6.4 | 17.7 | 0.00 | 0.00 | 0.00 | 46 | 1015.0 |
| 20260902235015 | 31 | 210 | 9.7 | 17.7 | 0.00 | 0.00 | 0.00 | 45 | 1015.2 |
| 20260902234531 | 32 | 212 | 4.8 | 14.5 | 0.00 | 0.00 | 0.00 | 45 | 1015.1 |
| 20260902234026 | 32 | 133 | 6.4 | 9.7 | 0.00 | 0.00 | 0.00 | 46 | 1015.0 |
| 20260902233522 | 32 | 206 | 4.8 | 9.7 | 0.00 | 0.00 | 0.00 | 46 | 1015.1 |
| 20260902233018 | 32 | 94 | 3.2 | 6.4 | 0.00 | 0.00 | 0.00 | 45 | 1015.1 |
| 20260902232517 | 32 | 88 | 3.2 | 11.3 | 0.00 | 0.00 | 0.00 | 44 | 1015.2 |
| 20260902232013 | 32 | 89 | 6.4 | 11.3 | 0.00 | 0.00 | 0.00 | 43 | 1015.0 |
| 20260902231529 | 32 | 250 | 1.6 | 6.4 | 0.00 | 0.00 | 0.00 | 43 | 1015.1 |
| 20260902231025 | 33 | 250 | 1.6 | 6.4 | 0.00 | 0.00 | 0.00 | 46 | 1015.2 |
| 20260902230520 | 32 | 248 | 3.2 | 6.4 | 0.00 | 0.00 | 0.00 | 46 | 1015.2 |
| 20260902230047 | 32 | 245 | 1.6 | 4.8 | 0.00 | 0.00 | 0.00 | 47 | 1015.3 |
| 20260902225528 | 32 | 244 | 3.2 | 9.7 | 0.00 | 0.00 | 0.00 | 47 | 1015.2 |
| 20260902225024 | 32 | 244 | 3.2 | 9.7 | 0.00 | 0.00 | 0.00 | 46 | 1015.4 |
| 20260902224524 | 32 | 243 | 4.8 | 6.4 | 0.00 | 0.00 | 0.00 | 44 | 1015.4 |
| 20260902224019 | 32 | 334 | 1.6 | 6.4 | 0.00 | 0.00 | 0.00 | 44 | 1015.5 |
| 20260902223515 | 33 | 334 | 3.2 | 6.4 | 0.00 | 0.00 | 0.00 | 41 | 1015.5 |
| 20260902223031 | 33 | 346 | 3.2 | 8.0 | 0.00 | 0.00 | 0.00 | 43 | 1015.5 |
| 20260902222527 | 33 | 346 | 1.6 | 8.0 | 0.00 | 0.00 | 0.00 | 44 | 1015.5 |
| 20260902222022 | 33 | 335 | 3.2 | 8.0 | 0.00 | 0.00 | 0.00 | 44 | 1015.5 |
| 20260902221518 | 33 | 319 | 1.6 | 4.8 | 0.00 | 0.00 | 0.00 | 45 | 1015.5 |
| 20260902221018 | 33 | 319 | 1.6 | 4.8 | 0.00 | 0.00 | 0.00 | 45 | 1015.7 |
| 20260902220514 | 33 | 319 | 1.6 | 4.8 | 0.00 | 0.00 | 0.00 | 40 | 1015.8 |
| 20260902220042 | 33 | 319 | 1.6 | 4.8 | 0.00 | 0.00 | 0.00 | 39 | 1015.8 |
| 20260902215523 | 33 | 319 | 1.6 | 9.7 | 0.00 | 0.00 | 0.00 | 42 | 1015.7 |
| 20260902215019 | 33 | 319 | 3.2 | 9.7 | 0.00 | 0.00 | 0.00 | 40 | 1015.9 |
| 20260902214516 | 33 | 306 | 3.2 | 6.4 | 0.00 | 0.00 | 0.00 | 41 | 1016.0 |
| 20260902214031 | 33 | 284 | 1.6 | 11.3 | 0.00 | 0.00 | 0.00 | 41 | 1016.1 |
| 20260902213531 | 33 | 284 | 6.4 | 12.9 | 0.00 | 0.00 | 0.00 | 39 | 1016.1 |
| 20260902213027 | 33 | 284 | 1.6 | 11.3 | 0.00 | 0.00 | 0.00 | 42 | 1016.0 |
| 20260902212522 | 33 | 282 | 1.6 | 11.3 | 0.00 | 0.00 | 0.00 | 41 | 1016.1 |
| 20260902212018 | 33 | 297 | 4.8 | 8.0 | 0.00 | 0.00 | 0.00 | 41 | 1015.9 |
| 20260902211513 | 33 | 322 | 4.8 | 8.0 | 0.00 | 0.00 | 0.00 | 43 | 1016.1 |
| 20260902211028 | 33 | 325 | 1.6 | 8.0 | 0.00 | 0.00 | 0.00 | 41 | 1016.3 |
| 20260902210524 | 33 | 325 | 3.2 | 9.7 | 0.00 | 0.00 | 0.00 | 41 | 1016.4 |
| 20260902210037 | 33 | 320 | 1.6 | 9.7 | 0.00 | 0.00 | 0.00 | 44 | 1016.5 |
| 20260902205518 | 34 | 314 | 3.2 | 11.3 | 0.00 | 0.00 | 0.00 | 40 | 1016.5 |
| 20260902205013 | 33 | 267 | 3.2 | 11.3 | 0.00 | 0.00 | 0.00 | 45 | 1016.4 |
| 20260902204529 | 33 | 267 | 6.4 | 12.9 | 0.00 | 0.00 | 0.00 | 43 | 1016.5 |
| 20260902204025 | 33 | 284 | 4.8 | 12.9 | 0.00 | 0.00 | 0.00 | 43 | 1016.5 |
| 20260902203521 | 33 | 294 | 3.2 | 16.1 | 0.00 | 0.00 | 0.00 | 44 | 1016.7 |
| 20260902203016 | 33 | 291 | 6.4 | 16.1 | 0.00 | 0.00 | 0.00 | 45 | 1016.9 |
| 20260902202516 | 33 | 301 | 1.6 | 12.9 | 0.00 | 0.00 | 0.00 | 44 | 1016.8 |
| 20260902202032 | 33 | 317 | 3.2 | 14.5 | 0.00 | 0.00 | 0.00 | 44 | 1016.7 |
| 20260902201527 | 33 | 15 | 4.8 | 14.5 | 0.00 | 0.00 | 0.00 | 44 | 1016.7 |
| 20260902201022 | 33 | 2 | 3.2 | 14.5 | 0.00 | 0.00 | 0.00 | 44 | 1016.7 |
| 20260902200518 | 35 | 309 | 3.2 | 14.5 | 0.00 | 0.00 | 0.00 | 42 | 1016.9 |
| 20260902200046 | 34 | 330 | 3.2 | 12.9 | 0.00 | 0.00 | 0.00 | 45 | 1016.9 |
| 20260902195022 | 34 | 1 | 3.2 | 9.7 | 0.00 | 0.00 | 0.00 | 46 | 1017.3 |
| 20260902194522 | 32 | 15 | 4.8 | 14.5 | 0.00 | 0.00 | 0.00 | 48 | 1017.3 |
| 20260902194018 | 32 | 40 | 6.4 | 14.5 | 0.00 | 0.00 | 0.00 | 47 | 1017.3 |
| 20260902193513 | 33 | 287 | 6.4 | 12.9 | 0.00 | 0.00 | 0.00 | 44 | 1017.4 |
| 20260902193028 | 33 | 287 | 4.8 | 11.3 | 0.00 | 0.00 | 0.00 | 45 | 1017.5 |
| 20260902192523 | 32 | 6 | 3.2 | 9.7 | 0.00 | 0.00 | 0.00 | 47 | 1017.7 |
| 20260902192019 | 33 | 327 | 1.6 | 12.9 | 0.00 | 0.00 | 0.00 | 47 | 1017.7 |
| 20260902191515 | 32 | 319 | 4.8 | 12.9 | 0.00 | 0.00 | 0.00 | 47 | 1017.9 |
| 20260902191014 | 33 | 359 | 4.8 | 14.5 | 0.00 | 0.00 | 0.00 | 45 | 1017.9 |
| 20260902190529 | 33 | 354 | 3.2 | 16.1 | 0.00 | 0.00 | 0.00 | 45 | 1017.8 |
| 20260902190037 | 33 | 350 | 6.4 | 16.1 | 0.00 | 0.00 | 0.00 | 46 | 1018.0 |
| 20260902185518 | 33 | 285 | 3.2 | 14.5 | 0.00 | 0.00 | 0.00 | 44 | 1018.0 |
| 20260902185014 | 34 | 284 | 8.0 | 14.5 | 0.00 | 0.00 | 0.00 | 43 | 1018.2 |
| 20260902184530 | 34 | 317 | 4.8 | 9.7 | 0.00 | 0.00 | 0.00 | 43 | 1018.2 |
| 20260902184025 | 33 | 306 | 3.2 | 9.7 | 0.00 | 0.00 | 0.00 | 46 | 1018.3 |
| 20260902183525 | 33 | 294 | 1.6 | 9.7 | 0.00 | 0.00 | 0.00 | 46 | 1018.4 |
| 20260902183020 | 34 | 288 | 3.2 | 12.9 | 0.00 | 0.00 | 0.00 | 44 | 1018.5 |
| 20260902182516 | 33 | 281 | 6.4 | 12.9 | 0.00 | 0.00 | 0.00 | 45 | 1018.5 |
| 20260902182032 | 32 | 339 | 3.2 | 9.7 | 0.00 | 0.00 | 0.00 | 48 | 1018.5 |
| 20260902181527 | 32 | 29 | 4.8 | 11.3 | 0.00 | 0.00 | 0.00 | 46 | 1018.6 |
| 20260902181023 | 33 | 356 | 6.4 | 11.3 | 0.00 | 0.00 | 0.00 | 47 | 1018.6 |
| 20260902180518 | 34 | 330 | 3.2 | 8.0 | 0.00 | 0.00 | 0.00 | 46 | 1018.7 |
| 20260902180030 | 32 | 330 | 3.2 | 8.0 | 0.00 | 0.00 | 0.00 | 50 | 1018.8 |
| 20260902175531 | 33 | 332 | 4.8 | 9.7 | 0.00 | 0.00 | 0.00 | 47 | 1018.9 |
| 20260902175027 | 33 | 289 | 1.6 | 9.7 | 0.00 | 0.00 | 0.00 | 47 | 1018.9 |
| 20260902174523 | 32 | 358 | 1.6 | 8.0 | 0.00 | 0.00 | 0.00 | 48 | 1019.0 |
| 20260902174019 | 32 | 358 | 4.8 | 8.0 | 0.00 | 0.00 | 0.00 | 49 | 1018.9 |
| 20260902173514 | 32 | 358 | 1.6 | 8.0 | 0.00 | 0.00 | 0.00 | 49 | 1019.0 |
| 20260902173030 | 32 | 342 | 4.8 | 8.0 | 0.00 | 0.00 | 0.00 | 50 | 1018.9 |
| 20260902172526 | 32 | 333 | 1.6 | 4.8 | 0.00 | 0.00 | 0.00 | 49 | 1018.9 |
| 20260902172026 | 32 | 333 | 3.2 | 4.8 | 0.00 | 0.00 | 0.00 | 49 | 1019.0 |
| 20260902171523 | 32 | 360 | 1.6 | 6.4 | 0.00 | 0.00 | 0.00 | 50 | 1019.0 |
| 20260902171019 | 32 | 360 | 3.2 | 6.4 | 0.00 | 0.00 | 0.00 | 50 | 1019.1 |
| 20260902170514 | 32 | 24 | 1.6 | 4.8 | 0.00 | 0.00 | 0.00 | 51 | 1019.0 |
| 20260902170041 | 31 | 27 | 1.6 | 8.0 | 0.00 | 0.00 | 0.00 | 50 | 1019.0 |
| 20260902165521 | 31 | 27 | 4.8 | 8.0 | 0.00 | 0.00 | 0.00 | 51 | 1019.0 |
| 20260902165016 | 31 | 75 | 3.2 | 4.8 | 0.00 | 0.00 | 0.00 | 54 | 1019.0 |
| 20260902164517 | 31 | 74 | 1.6 | 6.4 | 0.00 | 0.00 | 0.00 | 54 | 1019.0 |
| 20260902164013 | 30 | 75 | 3.2 | 6.4 | 0.00 | 0.00 | 0.00 | 54 | 1019.1 |
| 20260902163530 | 30 | 75 | 1.6 | 9.7 | 0.00 | 0.00 | 0.00 | 55 | 1019.1 |
| 20260902163026 | 30 | 75 | 3.2 | 9.7 | 0.00 | 0.00 | 0.00 | 57 | 1019.0 |
| 20260902162521 | 31 | 77 | 1.6 | 4.8 | 0.00 | 0.00 | 0.00 | 57 | 1019.0 |
| 20260902162015 | 30 | 77 | 1.6 | 6.4 | 0.00 | 0.00 | 0.00 | 56 | 1019.1 |
| 20260902161530 | 30 | 77 | 3.2 | 6.4 | 0.00 | 0.00 | 0.00 | 56 | 1019.1 |
| 20260902161030 | 30 | 79 | 3.2 | 6.4 | 0.00 | 0.00 | 0.00 | 57 | 1019.2 |
| 20260902160525 | 30 | 83 | 1.6 | 4.8 | 0.00 | 0.00 | 0.00 | 57 | 1019.1 |
| 20260902160033 | 30 | 84 | 3.2 | 8.0 | 0.00 | 0.00 | 0.00 | 58 | 1019.1 |
| 20260902155514 | 29 | 86 | 4.8 | 8.0 | 0.00 | 0.00 | 0.00 | 60 | 1019.0 |
| 20260902155030 | 28 | 96 | 3.2 | 8.0 | 0.00 | 0.00 | 0.00 | 61 | 1019.0 |
| 20260902154526 | 28 | 97 | 3.2 | 8.0 | 0.00 | 0.00 | 0.00 | 61 | 1019.0 |
| 20260902154023 | 28 | 98 | 4.8 | 8.0 | 0.00 | 0.00 | 0.00 | 61 | 1019.0 |
| 20260902153523 | 27 | 99 | 4.8 | 8.0 | 0.00 | 0.00 | 0.00 | 62 | 1019.0 |
| 20260902153020 | 27 | 102 | 4.8 | 6.4 | 0.00 | 0.00 | 0.00 | 63 | 1019.1 |
| 20260902152514 | 27 | 104 | 4.8 | 6.4 | 0.00 | 0.00 | 0.00 | 62 | 1019.0 |
| 20260902152029 | 27 | 104 | 3.2 | 6.4 | 0.00 | 0.00 | 0.00 | 64 | 1019.0 |
| 20260902151524 | 27 | 104 | 1.6 | 4.8 | 0.00 | 0.00 | 0.00 | 64 | 1019.0 |
| 20260902151020 | 27 | 104 | 1.6 | 4.8 | 0.00 | 0.00 | 0.00 | 65 | 1019.0 |
| 20260902150517 | 27 | 104 | 3.2 | 6.4 | 0.00 | 0.00 | 0.00 | 66 | 1018.9 |
| 20260902150028 | 27 | 105 | 3.2 | 6.4 | 0.00 | 0.00 | 0.00 | 65 | 1019.0 |
| 20260902145530 | 26 | 105 | 3.2 | 6.4 | 0.00 | 0.00 | 0.00 | 67 | 1018.9 |
| 20260902145026 | 26 | 105 | 4.8 | 8.0 | 0.00 | 0.00 | 0.00 | 68 | 1018.9 |
| 20260902144523 | 26 | 105 | 6.4 | 12.9 | 0.00 | 0.00 | 0.00 | 69 | 1018.9 |
| 20260902144020 | 26 | 105 | 4.8 | 12.9 | 0.00 | 0.00 | 0.00 | 69 | 1018.9 |
| 20260902143019 | 26 | 127 | 4.8 | 6.4 | 0.00 | 0.00 | 0.00 | 69 | 1018.9 |
| 20260902142519 | 26 | 127 | 3.2 | 6.4 | 0.00 | 0.00 | 0.00 | 69 | 1018.9 |
| 20260902142016 | 26 | 126 | 1.6 | 8.0 | 0.00 | 0.00 | 0.00 | 70 | 1018.9 |
| 20260902141532 | 25 | 126 | 3.2 | 9.7 | 0.00 | 0.00 | 0.00 | 69 | 1018.8 |
| 20260902141028 | 25 | 135 | 4.8 | 9.7 | 0.00 | 0.00 | 0.00 | 71 | 1018.9 |
| 20260902140523 | 25 | 169 | 3.2 | 6.4 | 0.00 | 0.00 | 0.00 | 72 | 1018.7 |
| 20260902140030 | 25 | 169 | 3.2 | 8.0 | 0.00 | 0.00 | 0.00 | 72 | 1018.5 |
| 20260902135531 | 25 | 169 | 4.8 | 8.0 | 0.00 | 0.00 | 0.00 | 74 | 1018.8 |
| 20260902135027 | 25 | 250 | 4.8 | 6.4 | 0.00 | 0.00 | 0.00 | 74 | 1018.6 |
| 20260902092526 | 25 | 250 | 0.0 | 3.2 | 0.00 | 0.00 | 0.00 | 76 | 1017.6 |
| 20260902092021 | 25 | 250 | 1.6 | 1.6 | 0.00 | 0.00 | 0.00 | 75 | 1017.7 |
| 20260902091520 | 25 | 250 | 1.6 | 1.6 | 0.00 | 0.00 | 0.00 | 74 | 1017.7 |
| 20260902091015 | 25 | 250 | 0.0 | 1.6 | 0.00 | 0.00 | 0.00 | 75 | 1017.5 |
| 20260902090529 | 25 | 250 | 0.0 | 1.6 | 0.00 | 0.00 | 0.00 | 74 | 1017.5 |
| 20260902090035 | 25 | 250 | 0.0 | 1.6 | 0.00 | 0.00 | 0.00 | 70 | 1017.5 |
| 20260902085515 | 25 | 250 | 0.0 | 3.2 | 0.00 | 0.00 | 0.00 | 70 | 1017.5 |
| 20260902085029 | 26 | 250 | 1.6 | 3.2 | 0.00 | 0.00 | 0.00 | 70 | 1017.5 |
| 20260902084523 | 25 | 250 | 1.6 | 3.2 | 0.00 | 0.00 | 0.00 | 71 | 1017.4 |
| 20260902084022 | 25 | 250 | 3.2 | 4.8 | 0.00 | 0.00 | 0.00 | 70 | 1017.5 |
| 20260902083516 | 26 | 250 | 1.6 | 6.4 | 0.00 | 0.00 | 0.00 | 66 | 1017.4 |
| 20260902083030 | 26 | 250 | 3.2 | 6.4 | 0.00 | 0.00 | 0.00 | 65 | 1017.4 |
| 20260902082523 | 26 | 249 | 3.2 | 12.9 | 0.00 | 0.00 | 0.00 | 65 | 1017.3 |
| 20260902082018 | 26 | 249 | 4.8 | 12.9 | 0.00 | 0.00 | 0.00 | 65 | 1017.3 |
| 20260902081512 | 26 | 258 | 4.8 | 11.3 | 0.00 | 0.00 | 0.00 | 66 | 1017.4 |
| 20260902081027 | 26 | 268 | 4.8 | 11.3 | 0.00 | 0.00 | 0.00 | 68 | 1017.4 |
| 20260902080521 | 26 | 271 | 4.8 | 9.7 | 0.00 | 0.00 | 0.00 | 69 | 1017.5 |
| 20260902080031 | 25 | 270 | 3.2 | 6.4 | 0.00 | 0.00 | 0.00 | 69 | 1017.5 |
| 20260902075531 | 25 | 270 | 1.6 | 3.2 | 0.00 | 0.00 | 0.00 | 72 | 1017.4 |
| 20260902075025 | 25 | 270 | 0.0 | 3.2 | 0.00 | 0.00 | 0.00 | 74 | 1017.2 |
| 20260902074519 | 25 | 270 | 0.0 | 1.6 | 0.00 | 0.00 | 0.00 | 75 | 1017.1 |
| 20260902074014 | 25 | 270 | 0.0 | 4.8 | 0.00 | 0.00 | 0.00 | 71 | 1017.3 |
| 20260902073528 | 25 | 270 | 1.6 | 4.8 | 0.00 | 0.00 | 0.00 | 71 | 1017.3 |
| 20260902073023 | 26 | 270 | 1.6 | 3.2 | 0.00 | 0.00 | 0.00 | 70 | 1017.3 |
| 20260902072523 | 26 | 270 | 0.0 | 4.8 | 0.00 | 0.00 | 0.00 | 70 | 1017.3 |
| 20260902072018 | 26 | 270 | 3.2 | 4.8 | 0.00 | 0.00 | 0.00 | 70 | 1017.3 |
| 20260902071512 | 26 | 270 | 3.2 | 4.8 | 0.00 | 0.00 | 0.00 | 70 | 1017.4 |
| 20260902071027 | 26 | 270 | 3.2 | 6.4 | 0.00 | 0.00 | 0.00 | 69 | 1017.3 |
| 20260902070521 | 26 | 270 | 3.2 | 6.4 | 0.00 | 0.00 | 0.00 | 68 | 1017.3 |
| 20260902070027 | 25 | 320 | 3.2 | 4.8 | 0.00 | 0.00 | 0.00 | 70 | 1017.3 |
| 20260902065526 | 25 | 320 | 1.6 | 3.2 | 0.00 | 0.00 | 0.00 | 71 | 1017.2 |
| 20260902065021 | 25 | 320 | 0.0 | 3.2 | 0.00 | 0.00 | 0.00 | 71 | 1017.2 |
| 20260902064520 | 25 | 320 | 1.6 | 3.2 | 0.00 | 0.00 | 0.00 | 72 | 1017.2 |
| 20260902064015 | 25 | 320 | 0.0 | 1.6 | 0.00 | 0.00 | 0.00 | 71 | 1017.2 |
| 20260902063529 | 25 | 320 | 0.0 | 3.2 | 0.00 | 0.00 | 0.00 | 73 | 1017.2 |
| 20260902063024 | 25 | 320 | 0.0 | 3.2 | 0.00 | 0.00 | 0.00 | 73 | 1017.2 |
| 20260902062520 | 26 | 320 | 1.6 | 3.2 | 0.00 | 0.00 | 0.00 | 69 | 1017.1 |
| 20260902062014 | 26 | 320 | 0.0 | 3.2 | 0.00 | 0.00 | 0.00 | 69 | 1017.0 |
| 20260902061529 | 26 | 320 | 0.0 | 3.2 | 0.00 | 0.00 | 0.00 | 71 | 1017.1 |
| 20260902061027 | 26 | 320 | 3.2 | 3.2 | 0.00 | 0.00 | 0.00 | 68 | 1017.1 |
| 20260902060521 | 26 | 320 | 1.6 | 3.2 | 0.00 | 0.00 | 0.00 | 68 | 1017.2 |
| 20260902060028 | 26 | 320 | 0.0 | 3.2 | 0.00 | 0.00 | 0.00 | 67 | 1017.0 |
| 20260902055528 | 26 | 320 | 1.6 | 3.2 | 0.00 | 0.00 | 0.00 | 66 | 1017.1 |
| 20260902055022 | 26 | 320 | 1.6 | 3.2 | 0.00 | 0.00 | 0.00 | 65 | 1017.1 |
| 20260902054517 | 26 | 320 | 1.6 | 3.2 | 0.00 | 0.00 | 0.00 | 64 | 1017.1 |
| 20260902054012 | 26 | 320 | 1.6 | 3.2 | 0.00 | 0.00 | 0.00 | 64 | 1017.1 |
| 20260902053526 | 26 | 320 | 1.6 | 3.2 | 0.00 | 0.00 | 0.00 | 64 | 1017.2 |
| 20260902053024 | 26 | 320 | 3.2 | 4.8 | 0.00 | 0.00 | 0.00 | 63 | 1017.2 |
| 20260902052520 | 27 | 320 | 1.6 | 4.8 | 0.00 | 0.00 | 0.00 | 63 | 1017.3 |
| 20260902052016 | 27 | 320 | 3.2 | 3.2 | 0.00 | 0.00 | 0.00 | 63 | 1017.3 |
| 20260902051530 | 27 | 320 | 1.6 | 3.2 | 0.00 | 0.00 | 0.00 | 64 | 1017.2 |
| 20260902051024 | 27 | 320 | 3.2 | 4.8 | 0.00 | 0.00 | 0.00 | 63 | 1017.3 |
| 20260902050519 | 27 | 320 | 3.2 | 4.8 | 0.00 | 0.00 | 0.00 | 63 | 1017.3 |
| 20260902050026 | 27 | 320 | 3.2 | 4.8 | 0.00 | 0.00 | 0.00 | 64 | 1017.3 |
| 20260902045530 | 27 | 320 | 3.2 | 4.8 | 0.00 | 0.00 | 0.00 | 64 | 1017.3 |
| 20260902045025 | 27 | 320 | 1.6 | 3.2 | 0.00 | 0.00 | 0.00 | 63 | 1017.3 |
| 20260902044519 | 27 | 320 | 1.6 | 3.2 | 0.00 | 0.00 | 0.00 | 63 | 1017.3 |
| 20260902044013 | 27 | 320 | 1.6 | 4.8 | 0.00 | 0.00 | 0.00 | 62 | 1017.3 |
| 20260902043528 | 27 | 320 | 3.2 | 8.0 | 0.00 | 0.00 | 0.00 | 62 | 1017.3 |
| 20260902043023 | 27 | 320 | 3.2 | 8.0 | 0.00 | 0.00 | 0.00 | 64 | 1017.3 |
| 20260902042517 | 27 | 320 | 3.2 | 4.8 | 0.00 | 0.00 | 0.00 | 63 | 1017.2 |
| 20260902042015 | 27 | 320 | 3.2 | 4.8 | 0.00 | 0.00 | 0.00 | 64 | 1017.2 |
| 20260902041530 | 27 | 320 | 3.2 | 4.8 | 0.00 | 0.00 | 0.00 | 63 | 1017.2 |
| 20260902041025 | 27 | 320 | 1.6 | 4.8 | 0.00 | 0.00 | 0.00 | 63 | 1017.3 |
| 20260902040520 | 27 | 320 | 3.2 | 4.8 | 0.00 | 0.00 | 0.00 | 65 | 1017.1 |
| 20260902040026 | 27 | 320 | 1.6 | 3.2 | 0.00 | 0.00 | 0.00 | 65 | 1017.0 |
| 20260902035526 | 27 | 320 | 1.6 | 3.2 | 0.00 | 0.00 | 0.00 | 66 | 1016.9 |
| 20260902035020 | 27 | 320 | 3.2 | 3.2 | 0.00 | 0.00 | 0.00 | 65 | 1017.1 |
| 20260902034515 | 27 | 320 | 1.6 | 3.2 | 0.00 | 0.00 | 0.00 | 63 | 1017.0 |
| 20260902034013 | 27 | 320 | 1.6 | 3.2 | 0.00 | 0.00 | 0.00 | 63 | 1016.9 |
| 20260902033527 | 28 | 320 | 1.6 | 3.2 | 0.00 | 0.00 | 0.00 | 62 | 1016.8 |
| 20260902033021 | 28 | 320 | 1.6 | 4.8 | 0.00 | 0.00 | 0.00 | 62 | 1016.7 |
| 20260902032515 | 28 | 320 | 3.2 | 4.8 | 0.00 | 0.00 | 0.00 | 62 | 1016.5 |
| 20260902032030 | 28 | 320 | 1.6 | 3.2 | 0.00 | 0.00 | 0.00 | 62 | 1016.5 |
| 20260902031523 | 28 | 320 | 1.6 | 3.2 | 0.00 | 0.00 | 0.00 | 61 | 1016.3 |
| 20260902031018 | 28 | 320 | 1.6 | 3.2 | 0.00 | 0.00 | 0.00 | 61 | 1016.2 |
| 20260902030516 | 28 | 320 | 1.6 | 3.2 | 0.00 | 0.00 | 0.00 | 60 | 1016.1 |
| 20260902030043 | 28 | 320 | 3.2 | 8.0 | 0.00 | 0.00 | 0.00 | 58 | 1016.0 |
| 20260902025522 | 29 | 320 | 3.2 | 8.0 | 0.00 | 0.00 | 0.00 | 58 | 1015.9 |
| 20260902025016 | 29 | 320 | 3.2 | 8.0 | 0.00 | 0.00 | 0.00 | 58 | 1015.6 |
| 20260902024530 | 29 | 320 | 1.6 | 4.8 | 0.00 | 0.00 | 0.00 | 57 | 1015.6 |
| 20260902024024 | 29 | 320 | 3.2 | 4.8 | 0.00 | 0.00 | 0.00 | 58 | 1015.7 |
| 20260902023518 | 29 | 320 | 3.2 | 3.2 | 0.00 | 0.00 | 0.00 | 57 | 1015.5 |
| 20260902023032 | 29 | 320 | 1.6 | 3.2 | 0.00 | 0.00 | 0.00 | 55 | 1015.5 |
| 20260902022531 | 30 | 320 | 1.6 | 3.2 | 0.00 | 0.00 | 0.00 | 53 | 1015.4 |
| 20260902022025 | 30 | 320 | 1.6 | 3.2 | 0.00 | 0.00 | 0.00 | 51 | 1015.3 |
| 20260902021520 | 30 | 320 | 1.6 | 3.2 | 0.00 | 0.00 | 0.00 | 51 | 1015.3 |
| 20260902021016 | 30 | 320 | 1.6 | 3.2 | 0.00 | 0.00 | 0.00 | 51 | 1015.2 |
| 20260902020530 | 30 | 320 | 1.6 | 3.2 | 0.00 | 0.00 | 0.00 | 50 | 1015.2 |
| 20260902020036 | 30 | 320 | 0.0 | 3.2 | 0.00 | 0.00 | 0.00 | 49 | 1015.0 |
| 20260902015516 | 30 | 320 | 1.6 | 3.2 | 0.00 | 0.00 | 0.00 | 48 | 1015.0 |